Date,TemperatureHighF,TemperatureAvgF,TemperatureLowF,DewpointHighF,DewpointAvgF,DewpointLowF,HumidityHigh,HumidityAvg,HumidityLow,PressureMaxIn,PressureMinIn,WindSpeedMaxMPH,WindSpeedAvgMPH,GustSpeedMaxMPH,PrecipitationSumIn
2013-1-1,52,39,32,39,34,29,96,83,51,30.23,30.13,4,1,8,0.00
2013-1-2,56,39,29,40,31,24,94,74,39,30.23,30.12,5,1,7,0.00
2013-1-3,58,40,30,41,34,29,98,83,43,30.24,30.14,3,0,5,0.01
2013-1-4,57,42,32,40,34,30,97,75,40,30.27,30.16,4,0,7,0.01
2013-1-5,59,46,35,39,32,25,86,62,29,30.23,30.02,5,1,8,0.00
2013-1-6,48,41,35,42,38,33,97,90,71,30.09,30.02,4,1,11,0.43
2013-1-7,43,37,29,38,35,28,98,92,81,30.23,30.06,3,0,6,0.01
2013-1-8,57,41,31,46,37,30,97,87,62,30.21,30.12,3,0,6,0.00
2013-1-9,64,48,37,50,40,34,95,77,37,30.14,29.89,7,1,14,0.04
2013-1-10,44,35,29,35,31,26,97,84,53,30.09,29.93,8,1,11,0.03
2013-1-11,43,33,25,31,27,22,90,78,58,30.19,30.08,7,2,12,0.48
2013-1-12,42,33,26,30,27,23,91,79,53,30.19,30.09,5,1,10,0.00
2013-1-13,44,33,26,30,26,23,93,77,52,30.20,30.10,6,1,9,0.00
2013-1-14,44,33,24,31,27,23,94,81,59,30.38,30.16,5,1,7,0.01
2013-1-15,51,36,27,33,28,24,94,75,39,30.45,30.37,4,1,6,0.00
2013-1-16,60,41,29,37,29,24,87,68,28,30.42,30.24,4,0,6,0.00
2013-1-17,66,46,33,41,30,23,87,58,21,30.25,30.14,4,1,8,0.00
2013-1-18,68,48,35,40,30,23,84,55,19,30.19,30.09,6,1,6,0.00
2013-1-19,68,48,36,42,34,23,86,64,19,30.22,30.12,3,1,6,0.00
2013-1-20,64,47,35,38,33,26,85,64,25,30.20,30.09,4,0,7,0.00
2013-1-21,69,48,35,44,34,28,82,62,22,30.15,30.08,3,0,6,0.00
2013-1-22,72,51,37,40,28,12,70,46,10,30.12,30.01,7,1,9,0.00
2013-1-23,68,55,45,45,33,20,70,44,17,30.05,29.96,7,2,11,0.00
2013-1-24,59,54,51,54,50,42,97,90,54,30.11,29.99,3,0,5,0.27
2013-1-25,59,53,50,56,52,49,99,96,89,30.12,29.95,3,0,5,0.02
2013-1-26,56,51,44,52,49,40,99,93,82,29.96,29.88,3,0,8,0.04
2013-1-27,50,40,32,40,35,30,97,82,62,30.04,29.92,7,2,13,0.00
2013-1-28,50,38,30,36,32,28,95,81,53,30.22,30.04,7,1,11,0.00
2013-1-29,51,39,31,40,35,30,96,84,62,30.28,30.21,4,1,7,0.00
2013-1-30,61,44,33,46,38,32,96,82,46,30.33,30.24,4,1,8,0.01
2013-1-31,65,48,36,46,40,35,97,76,43,30.26,30.14,3,0,6,0.00
2013-2-1,69,51,38,49,41,35,92,72,38,30.18,30.07,6,1,6,0.00
2013-2-2,64,51,42,47,42,37,89,73,41,30.22,30.14,1,0,4,0.00
2013-2-3,64,48,37,47,40,35,93,75,44,30.17,30.04,5,1,7,0.00
2013-2-4,65,49,38,50,43,37,97,81,53,30.11,30.00,4,0,6,0.00
2013-2-5,64,49,39,49,43,37,98,82,49,30.02,29.94,5,1,8,0.01
2013-2-6,54,42,35,46,40,34,97,90,74,30.13,30.00,5,1,7,0.01
2013-2-7,52,41,33,41,37,32,98,86,58,30.13,29.92,5,1,8,0.15
2013-2-8,46,37,30,38,33,29,98,87,68,29.92,29.84,7,1,10,0.01
2013-2-9,48,39,29,38,34,28,97,84,62,30.06,29.89,5,1,8,0.01
2013-2-10,47,40,33,38,35,31,94,81,64,30.05,29.98,3,1,6,0.00
2013-2-11,55,41,30,39,34,29,96,78,51,30.22,30.03,5,1,8,0.00
2013-2-12,57,44,33,39,34,31,93,73,44,30.32,30.22,4,1,8,0.00
2013-2-13,61,45,34,41,36,32,94,73,39,30.28,30.17,5,1,8,0.00
2013-2-14,67,49,36,46,39,34,93,72,40,30.20,30.12,4,1,6,0.00
2013-2-15,70,52,38,48,40,33,88,68,33,30.23,30.17,6,1,8,0.00
2013-2-16,69,53,41,44,36,30,89,57,24,30.21,29.98,3,1,8,0.00
2013-2-17,64,49,37,42,35,29,86,62,34,29.99,29.88,5,1,8,0.00
2013-2-18,62,48,37,44,39,35,93,74,39,29.96,29.84,6,1,8,0.00
2013-2-19,45,39,32,38,35,31,96,85,67,29.86,29.65,7,1,14,0.12
2013-2-20,45,35,27,38,32,26,97,90,74,30.04,29.72,4,1,6,0.57
2013-2-21,51,40,32,40,35,30,96,85,62,30.14,30.00,6,2,10,0.00
2013-2-22,54,42,32,42,37,30,97,82,60,30.21,30.13,5,1,10,0.00
2013-2-23,54,44,37,43,37,29,94,77,55,30.20,30.01,8,2,13,0.00
2013-2-24,55,42,32,40,34,30,94,78,47,30.22,30.05,5,1,8,0.00
2013-2-25,60,45,34,43,36,32,93,74,39,30.25,30.08,6,1,9,0.00
2013-2-26,59,44,34,44,37,32,92,76,52,30.17,30.05,6,1,8,0.00
2013-2-27,63,47,36,45,38,34,95,76,46,30.31,30.17,4,1,6,0.00
2013-2-28,66,49,38,45,40,35,93,73,42,30.38,30.30,6,1,9,0.00
2013-3-1,73,53,41,49,41,33,91,67,33,30.38,30.20,4,1,7,0.00
2013-3-2,76,58,45,44,37,30,70,50,20,30.21,30.00,6,1,9,0.00
2013-3-3,59,54,45,49,44,40,85,68,53,30.05,29.93,5,1,8,0.00
2013-3-4,65,52,40,47,42,36,91,70,48,30.04,29.96,5,1,11,0.00
2013-3-5,64,50,41,47,42,36,95,76,47,30.00,29.83,7,2,12,0.00
2013-3-6,51,45,40,46,41,33,95,85,51,30.02,29.87,7,2,11,0.30
2013-3-7,52,44,41,43,40,36,97,86,60,29.92,29.79,5,1,8,0.02
2013-3-8,54,45,36,43,39,34,95,81,55,29.98,29.70,6,2,13,0.00
2013-3-9,58,46,39,46,40,37,95,84,62,30.26,29.98,6,1,9,0.00
2013-3-10,64,49,38,48,42,36,96,78,50,30.30,30.19,6,1,8,0.00
2013-3-11,68,52,38,52,44,36,96,74,49,30.22,30.04,5,1,7,0.00
2013-3-12,75,56,43,54,47,41,94,76,45,30.08,30.00,5,1,6,0.00
2013-3-13,80,61,45,50,45,39,88,60,25,30.10,30.00,6,2,7,0.00
2013-3-14,81,62,50,54,45,39,79,58,27,30.05,29.97,7,1,9,0.00
2013-3-15,74,60,50,56,49,45,87,70,40,30.00,29.91,6,1,7,0.00
2013-3-16,73,58,49,56,51,48,96,80,47,29.96,29.89,5,2,9,0.00
2013-3-26,64,55,50,44,43,41,76,66,43,29.87,29.83,3,0,5,0.00
2013-3-27,70,56,45,47,44,40,85,66,40,29.92,29.83,6,1,10,0.00
2013-3-28,69,57,47,52,48,44,90,74,52,30.00,29.91,4,1,9,0.00
2013-3-29,76,59,45,49,45,40,88,63,29,30.02,29.94,4,1,8,0.00
2013-3-30,77,61,49,52,46,43,87,63,32,29.97,29.84,6,2,9,0.00
2013-3-31,67,56,48,53,48,44,97,78,46,30.00,29.89,6,1,10,0.60
2013-4-1,64,52,45,49,46,42,96,81,55,30.06,29.97,7,1,10,0.00
2013-4-2,68,55,43,53,47,40,94,76,51,30.08,29.99,6,2,10,0.00
2013-4-3,75,60,47,56,51,45,97,75,48,30.06,29.92,5,1,7,0.00
2013-4-4,67,56,50,56,51,47,96,86,58,30.07,29.91,4,1,6,0.24
2013-4-5,67,56,45,53,48,42,97,76,43,30.06,30.00,7,2,12,0.00
2013-4-6,68,56,45,51,47,43,96,75,44,30.08,30.01,6,2,9,0.00
2013-4-7,69,59,49,50,46,39,92,65,37,30.04,29.74,7,2,10,0.00
2013-4-8,62,50,41,47,38,24,95,67,29,29.84,29.62,9,3,15,0.76
2013-4-9,69,53,38,42,33,24,76,48,29,29.98,29.82,5,2,10,0.00
2013-4-10,75,57,44,49,43,37,82,62,33,30.11,29.97,4,1,7,0.00
2013-4-11,73,59,47,53,48,44,88,69,39,29.98,29.71,6,1,9,0.00
2013-4-12,77,62,48,56,49,44,95,66,34,29.81,29.72,4,1,9,0.00
2013-4-13,77,62,48,54,47,43,91,63,33,29.77,29.67,4,1,8,0.00
2013-4-14,72,57,46,51,42,30,89,61,23,29.75,29.68,6,1,10,0.00
2013-4-15,61,50,39,43,40,34,94,71,37,29.79,29.69,7,2,12,0.08
2013-4-16,60,44,33,42,32,18,96,67,29,29.99,29.79,11,2,14,0.04
2013-4-17,66,48,33,34,27,20,76,48,21,30.13,29.99,5,1,9,0.00
2013-4-18,71,52,38,40,33,29,76,52,23,30.19,30.12,5,1,10,0.00
2013-4-19,77,58,43,44,39,35,79,52,26,30.17,29.96,7,2,14,0.00
2013-4-20,78,61,47,49,43,39,79,54,26,29.98,29.88,5,1,7,0.00
2013-4-21,83,65,51,54,46,41,84,55,28,29.93,29.84,4,1,8,0.00
2013-4-22,84,67,53,56,46,38,83,52,22,29.88,29.72,6,2,10,0.00
2013-4-23,82,64,52,55,46,41,80,55,24,29.81,29.72,5,1,8,0.00
2013-4-24,82,63,50,52,42,36,81,51,20,29.77,29.67,5,1,10,0.00
2013-4-25,75,59,48,51,46,40,80,63,41,29.99,29.76,5,1,9,0.00
2013-4-26,80,62,50,53,47,44,88,64,30,30.10,29.99,6,2,8,0.00
2013-4-27,86,67,51,55,49,46,87,57,25,30.10,29.93,5,1,8,0.00
2013-4-28,88,67,52,58,49,42,87,58,22,29.94,29.76,5,1,10,0.00
2013-4-29,88,69,55,56,48,42,78,52,22,29.78,29.64,6,1,12,0.00
2013-4-30,84,67,55,55,45,39,79,49,21,29.69,29.62,6,1,11,0.00
2013-5-1,85,66,52,48,42,37,71,46,19,30.00,29.69,4,1,7,0.00
2013-5-2,88,71,55,51,41,36,67,37,17,30.06,29.97,5,1,9,0.00
2013-5-3,89,70,55,52,41,34,68,38,15,29.98,29.68,5,1,10,0.00
2013-5-4,85,68,54,52,41,32,67,41,16,29.68,29.44,5,1,9,0.00
2013-5-5,69,60,54,45,40,34,64,48,32,29.74,29.48,6,1,10,0.00
2013-5-6,70,59,51,50,45,41,94,63,37,29.88,29.74,9,2,11,0.41
2013-5-7,63,54,50,55,50,48,95,87,60,29.95,29.85,3,0,5,0.78
2013-5-8,67,58,53,56,52,50,96,82,55,30.01,29.95,5,0,7,0.06
2013-5-9,75,62,50,57,52,48,92,73,47,30.01,29.94,6,1,9,0.00
2013-5-10,85,68,52,59,55,50,94,67,37,30.04,29.94,4,1,7,0.00
2013-5-11,92,72,57,60,56,53,91,61,28,30.01,29.92,6,1,7,0.00
2013-5-12,94,77,62,60,50,39,74,42,16,30.00,29.86,6,1,10,0.00
2013-5-13,94,75,61,56,48,42,67,42,18,29.92,29.77,5,1,9,0.00
2013-5-14,85,70,57,54,49,44,70,51,27,29.82,29.73,5,1,8,0.00
2013-5-15,85,70,55,56,47,34,84,49,17,29.88,29.81,6,2,10,0.00
2013-5-16,69,59,52,52,47,42,78,64,47,29.87,29.81,5,1,8,0.00
2013-5-17,75,60,48,51,42,32,92,57,26,29.92,29.83,6,2,11,0.00
2013-5-18,79,62,46,46,40,32,79,49,19,29.98,29.91,7,2,12,0.00
2013-5-19,83,65,48,47,42,39,72,45,22,29.95,29.83,6,2,11,0.00
2013-5-20,86,68,54,50,41,34,70,41,18,29.89,29.81,5,1,7,0.00
2013-5-21,84,66,52,50,39,25,66,41,12,29.82,29.71,5,1,10,0.00
2013-5-22,68,54,42,43,32,21,86,51,18,29.79,29.70,6,2,9,0.00
2013-5-23,72,57,40,34,30,24,62,38,21,29.84,29.75,6,2,9,0.00
2013-5-24,78,58,41,41,34,26,73,43,19,29.85,29.76,5,1,8,0.00
2013-5-25,78,60,45,42,36,31,70,43,19,29.84,29.79,5,1,12,0.00
2013-5-26,75,61,45,48,43,37,73,53,34,29.91,29.84,7,2,13,0.00
2013-5-27,75,60,46,50,45,39,88,60,28,29.91,29.82,7,1,10,0.00
2013-5-28,78,64,56,55,51,47,90,64,36,29.83,29.70,8,2,12,0.00
2013-5-29,78,67,56,52,49,45,73,54,36,29.76,29.66,7,2,14,0.00
2013-5-30,83,66,51,53,46,37,82,52,21,29.78,29.72,7,2,10,0.00
2013-5-31,89,70,55,49,43,39,64,41,18,29.80,29.73,5,1,10,0.00
2013-6-1,96,75,58,54,46,41,63,40,15,29.77,29.61,4,1,9,0.00
2013-6-2,96,78,61,56,47,41,60,37,16,29.61,29.46,5,1,10,0.00
2013-6-3,92,77,61,56,50,45,60,41,25,29.60,29.48,5,1,9,0.00
2013-6-4,90,74,61,58,54,53,75,51,30,29.71,29.59,5,1,8,0.00
2013-6-5,91,74,60,59,54,53,79,53,30,29.76,29.67,5,1,8,0.00
2013-6-6,94,78,62,60,55,53,74,49,28,29.72,29.62,5,1,8,0.00
2013-6-7,100,83,66,62,58,55,70,47,27,29.66,29.53,4,1,7,0.00
2013-6-8,105,84,68,63,59,56,70,47,20,29.56,29.46,6,1,8,0.00
2013-6-9,94,79,68,64,58,53,73,50,27,29.59,29.52,6,1,8,0.01
2013-6-10,78,68,60,56,52,42,81,58,28,29.77,29.55,5,1,8,0.00
2013-6-11,90,71,57,56,50,45,77,51,24,29.81,29.70,4,1,6,0.00
2013-6-12,90,72,58,54,45,29,67,42,14,29.76,29.71,5,1,10,0.00
2013-6-13,85,68,49,41,36,29,59,34,14,29.87,29.77,7,2,12,0.00
2013-6-14,87,69,53,46,37,27,58,33,14,29.77,29.64,5,1,9,0.00
2013-6-15,89,71,54,45,35,30,54,30,13,29.76,29.66,6,1,10,0.00
2013-6-16,88,73,56,45,40,35,48,32,19,29.84,29.76,8,2,14,0.00
2013-6-17,88,73,59,49,42,31,56,36,14,29.84,29.76,8,2,13,0.00
2013-6-18,79,64,51,49,42,37,68,46,23,29.79,29.72,8,2,10,0.00
2013-6-19,78,62,46,45,39,31,79,46,21,29.82,29.77,8,2,13,0.00
2013-6-20,84,67,49,42,37,31,59,36,19,29.79,29.72,8,2,13,0.00
2013-6-21,86,72,54,46,40,34,57,34,17,29.75,29.69,7,2,16,0.00
2013-6-22,90,72,55,46,40,36,55,34,19,29.74,29.63,7,1,10,0.00
2013-6-23,80,69,56,52,46,40,68,45,26,29.65,29.59,8,2,11,0.00
2013-6-24,71,65,62,62,57,51,91,76,63,29.75,29.61,2,0,5,0.09
2013-6-25,86,72,63,60,58,56,85,64,37,29.83,29.75,5,1,9,0.00
2013-6-26,91,76,61,62,57,56,84,56,33,29.84,29.77,6,1,13,0.00
2013-6-27,97,81,63,62,57,54,77,47,27,29.86,29.80,8,2,12,0.00
2013-6-28,101,85,68,62,57,54,68,42,24,29.82,29.69,6,2,12,0.00
2013-6-29,104,87,72,62,57,55,55,39,21,29.71,29.58,8,2,15,0.00
2013-6-30,105,88,72,63,56,54,57,37,20,29.62,29.53,6,1,10,0.00
2013-7-1,106,89,74,62,55,49,53,34,17,29.63,29.57,7,1,10,0.00
2013-7-2,103,89,75,63,56,50,57,35,22,29.70,29.60,5,2,11,0.00
2013-7-3,103,89,73,62,58,54,57,37,23,29.67,29.53,5,1,8,0.00
2013-7-4,104,87,73,65,60,56,60,42,25,29.56,29.45,6,1,9,0.00
2013-7-5,99,85,68,64,53,38,65,38,13,29.52,29.46,5,2,10,0.00
2013-7-6,96,80,63,50,44,39,46,30,15,29.57,29.50,5,1,10,0.00
2013-7-7,98,79,64,51,45,41,48,33,16,29.62,29.56,5,1,10,0.00
2013-7-8,100,82,64,48,37,24,43,24,7,29.76,29.62,5,2,12,0.00
2013-7-9,101,84,67,43,35,30,29,18,9,29.82,29.73,6,2,8,0.00
2013-7-10,101,82,68,50,40,34,38,24,11,29.74,29.65,5,1,8,0.00
2013-7-11,96,82,66,52,41,26,43,26,9,29.69,29.63,5,2,9,0.00
2013-7-12,94,78,60,44,37,32,38,24,14,29.72,29.65,5,1,11,0.00
2013-7-13,96,78,60,44,38,34,42,26,12,29.75,29.69,6,1,12,0.00
2013-7-14,98,80,63,46,40,36,40,26,13,29.76,29.65,5,1,10,0.00
2013-7-15,95,80,63,47,41,36,47,27,16,29.66,29.57,5,2,11,0.00
2013-7-16,89,74,59,48,41,37,49,32,19,29.78,29.61,6,2,9,0.00
2013-7-17,92,74,59,48,42,37,47,33,19,29.86,29.78,6,1,10,0.00
2013-7-18,95,77,61,49,43,38,52,32,16,29.83,29.71,7,1,10,0.00
2013-7-19,98,80,64,50,45,40,43,31,17,29.72,29.60,6,1,9,0.00
2013-7-20,101,85,68,52,49,46,50,31,17,29.62,29.51,5,2,10,0.00
2013-7-21,101,84,70,54,46,37,47,30,12,29.65,29.53,5,1,8,0.00
2013-7-22,93,82,71,63,49,41,62,33,24,29.73,29.61,6,1,8,0.01
2013-7-23,93,80,72,58,53,45,60,40,23,29.80,29.70,7,1,11,0.00
2013-7-24,98,81,66,54,51,48,55,37,20,29.77,29.65,7,2,12,0.00
2013-7-25,98,84,71,58,55,51,52,38,24,29.77,29.69,5,1,9,0.00
2013-7-26,99,84,71,60,52,42,59,37,15,29.83,29.75,6,1,10,0.00
2013-7-27,98,81,68,55,47,41,50,33,15,29.76,29.63,5,1,9,0.00
2013-7-28,96,81,68,52,47,41,46,32,15,29.63,29.56,6,1,11,0.00
2013-7-29,95,80,64,55,47,41,57,35,17,29.77,29.59,5,2,11,0.00
2013-7-30,94,77,63,53,46,39,49,35,18,29.85,29.76,7,1,12,0.00
2013-7-31,93,76,62,52,46,37,58,36,18,29.85,29.75,7,2,10,0.00
2013-8-1,90,75,59,45,36,28,50,27,11,29.81,29.72,7,2,12,0.00
2013-8-2,90,72,57,43,38,35,45,31,15,29.76,29.69,6,2,9,0.00
2013-8-3,92,74,58,43,38,34,47,29,13,29.76,29.70,6,1,12,0.00
2013-8-4,93,76,60,43,39,35,43,28,14,29.76,29.71,6,1,10,0.00
2013-8-5,93,77,60,47,41,36,48,29,14,29.79,29.70,7,2,11,0.00
2013-8-6,92,75,60,46,41,37,48,31,17,29.79,29.72,6,2,9,0.00
2013-8-7,86,69,57,52,45,41,59,44,24,29.86,29.77,5,1,9,0.00
2013-8-8,86,70,54,49,44,39,68,42,23,29.81,29.72,5,1,9,0.00
2013-8-9,86,70,55,47,43,39,58,39,21,29.77,29.70,6,1,10,0.00
2013-8-10,88,72,59,49,43,37,52,37,19,29.81,29.76,6,2,10,0.00
2013-8-11,89,74,57,50,45,42,61,39,21,29.81,29.72,6,2,10,0.00
2013-8-12,92,75,60,48,44,40,56,36,18,29.78,29.72,6,2,9,0.00
2013-8-13,95,78,62,47,42,38,47,30,16,29.78,29.69,6,2,9,0.00
2013-8-14,97,80,62,44,39,32,44,26,11,29.75,29.67,5,2,9,0.00
2013-8-15,98,80,59,43,36,26,42,24,8,29.76,29.69,7,2,12,0.00
2013-8-16,98,81,65,45,37,29,32,22,11,29.76,29.69,7,2,12,0.00
2013-8-17,97,82,67,50,43,40,45,27,14,29.74,29.61,9,2,12,0.00
2013-8-18,100,80,67,52,47,40,48,33,13,29.68,29.58,4,1,9,0.00
2013-8-19,102,84,69,66,51,43,72,35,17,29.69,29.57,7,2,12,0.01
2013-8-20,98,82,68,61,54,50,57,40,23,29.65,29.56,5,1,9,0.00
2013-8-21,96,79,66,58,48,34,63,37,12,29.69,29.61,6,1,9,0.00
2013-8-22,94,77,64,49,41,30,47,30,11,29.72,29.62,5,1,12,0.00
2013-8-23,91,72,60,52,44,39,50,38,20,29.70,29.58,6,1,11,0.00
2013-8-24,90,73,58,47,44,41,57,38,19,29.68,29.61,7,1,10,0.00
2013-8-25,89,72,59,50,46,42,56,41,23,29.75,29.67,5,1,10,0.00
2013-8-26,89,73,62,54,48,45,56,43,27,29.78,29.68,8,2,12,0.00
2013-8-27,92,77,63,52,49,47,58,39,23,29.69,29.59,5,1,8,0.00
2013-8-28,94,79,68,56,51,45,53,38,23,29.71,29.61,6,2,10,0.00
2013-8-29,94,79,64,53,48,42,59,36,20,29.81,29.72,6,2,9,0.00
2013-8-30,96,80,66,54,47,43,48,33,17,29.83,29.70,6,2,11,0.00
2013-8-31,94,80,67,54,49,44,46,34,24,29.76,29.67,5,2,8,0.00
2013-9-1,92,79,68,59,52,47,60,41,25,29.72,29.65,6,1,9,0.00
2013-9-2,90,77,66,61,57,55,68,51,33,29.73,29.64,5,1,9,0.00
2013-9-3,87,76,64,60,57,54,76,54,35,29.76,29.68,5,1,11,0.00
2013-9-4,92,76,63,58,54,51,71,50,28,29.80,29.71,5,2,8,0.00
2013-9-5,91,75,62,56,52,46,68,47,28,29.78,29.71,5,1,9,0.00
2013-9-6,93,75,62,54,50,46,67,43,24,29.77,29.66,6,1,12,0.00
2013-9-7,96,76,63,52,46,40,59,38,16,29.72,29.63,5,1,10,0.00
2013-9-8,97,81,66,50,43,38,41,28,15,29.67,29.55,8,2,10,0.00
2013-9-9,96,80,67,49,44,34,44,30,12,29.59,29.48,8,2,12,0.00
2013-9-10,93,77,65,52,45,41,45,33,19,29.65,29.53,5,1,8,0.00
2013-9-11,86,73,61,51,47,43,54,41,24,29.76,29.66,5,1,9,0.00
2013-9-12,88,72,59,53,49,42,63,45,22,29.77,29.67,5,1,9,0.00
2013-9-13,90,74,61,55,51,48,64,46,29,29.70,29.54,5,2,9,0.00
2013-9-15,83,82,82,46,45,44,27,27,27,29.57,29.57,0,0,1,0.00
2013-9-16,91,80,64,51,49,47,57,36,23,29.67,29.57,5,2,9,0.00
2013-9-17,82,68,57,50,45,37,69,47,23,29.65,29.60,7,2,14,0.00
2013-9-18,82,66,51,47,41,38,64,43,25,29.71,29.62,6,1,10,0.00
2013-9-19,92,70,53,46,39,30,62,37,11,29.72,29.58,4,1,8,0.00
2013-9-20,87,70,58,49,41,35,65,38,18,29.65,29.58,7,1,9,0.00
2013-9-21,71,58,49,57,48,43,91,72,53,29.73,29.59,8,1,9,0.71
2013-9-22,71,56,45,52,46,40,94,72,40,29.83,29.72,6,1,10,0.01
2013-9-23,81,62,49,52,48,46,90,65,33,29.87,29.77,5,1,9,0.00
2013-9-24,82,66,52,51,48,43,80,57,29,29.82,29.67,5,1,8,0.00
2013-9-25,68,56,44,49,42,33,89,61,34,29.70,29.60,7,2,12,0.00
2013-9-26,70,54,41,40,34,31,75,49,25,29.82,29.60,7,2,11,0.00
2013-9-27,73,58,44,36,33,31,64,42,24,29.94,29.82,5,1,8,0.00
2013-9-28,82,62,48,39,32,28,57,36,15,29.96,29.86,5,1,12,0.00
2013-9-29,84,66,51,42,35,30,51,35,17,29.95,29.86,5,1,8,0.00
2013-9-30,80,63,51,48,43,37,69,50,28,29.89,29.77,6,1,11,0.00
2013-10-1,78,64,51,51,47,43,77,56,36,29.81,29.73,4,1,9,0.00
2013-10-2,78,62,49,50,42,33,81,52,24,29.81,29.73,6,1,10,0.00
2013-10-3,71,57,46,39,32,25,64,41,19,29.80,29.74,7,2,13,0.00
2013-10-4,76,58,45,33,30,24,50,36,20,30.00,29.80,6,2,7,0.00
2013-10-5,80,62,47,28,25,20,39,25,12,30.07,29.99,5,1,8,0.00
2013-10-6,83,63,48,31,26,22,39,26,11,30.00,29.85,4,1,8,0.00
2013-10-7,84,64,53,33,26,22,37,25,11,29.85,29.71,5,1,14,0.00
2013-10-8,78,61,48,34,28,24,42,29,15,29.72,29.50,5,1,10,0.00
2013-10-9,55,51,43,46,38,30,87,64,42,29.65,29.42,3,1,8,0.02
2013-10-10,68,53,41,44,41,38,91,66,39,29.88,29.65,5,1,8,0.00
2013-10-11,74,56,43,42,37,-100,78,55,30,29.92,29.82,5,-14,9,0.00
2013-10-12,74,57,47,44,39,35,74,54,27,29.85,29.74,7,3,8,0.00
2013-10-13,70,55,45,43,38,35,74,55,35,29.92,29.73,6,2,12,0.00
2013-10-14,75,58,45,43,39,36,75,52,29,29.98,29.85,5,1,9,0.00
2013-10-15,76,60,47,41,38,36,65,48,27,29.90,29.82,6,2,7,0.00
2013-10-16,78,66,55,35,32,30,43,29,19,29.91,29.89,4,2,7,0.00
2013-10-17,78,62,50,37,34,31,50,37,21,29.92,29.80,7,3,12,0.00
2013-10-18,83,62,49,40,34,29,53,37,16,29.91,29.84,6,3,10,0.00
2013-10-19,83,62,48,35,30,25,41,32,16,29.94,29.85,6,1,7,0.00
2013-10-20,80,63,49,35,30,26,42,31,17,29.87,29.75,6,2,8,0.00
2013-10-21,83,62,52,38,33,24,49,35,17,29.84,29.75,7,3,8,0.00
2013-10-22,86,66,52,32,26,21,31,23,10,29.86,29.75,6,2,8,0.00
2013-10-23,82,63,52,40,30,23,46,30,16,29.78,29.70,6,2,7,0.00
2013-10-24,79,61,51,40,35,33,53,41,20,29.92,29.77,5,1,9,0.00
2013-10-25,78,60,49,43,39,35,65,48,25,30.00,29.92,4,1,6,0.00
2013-10-26,82,61,50,46,41,37,70,52,26,29.99,29.86,6,2,7,0.00
2013-10-27,77,58,48,44,39,35,81,52,24,29.88,29.52,6,2,11,0.00
2013-10-28,49,46,41,46,43,40,95,89,80,29.77,29.52,5,1,11,0.44
2013-10-29,60,48,40,44,41,38,96,79,48,29.89,29.77,4,1,8,0.00
2013-10-30,63,48,38,44,40,36,94,75,45,30.00,29.89,5,1,7,0.00
2013-10-31,70,50,40,44,40,38,94,71,33,30.05,29.95,5,1,6,0.00
2013-11-1,78,55,41,43,35,29,83,53,17,30.06,29.90,6,1,7,0.00
2013-11-2,75,57,46,39,35,31,66,46,24,29.91,29.74,6,2,8,0.00
2013-11-3,66,51,42,39,36,31,76,57,33,29.81,29.74,6,1,8,0.00
2013-11-4,61,48,39,40,34,30,78,59,34,29.94,29.71,5,2,8,0.00
2013-11-5,64,48,38,38,33,30,81,59,31,30.14,29.94,6,2,7,0.00
2013-11-6,73,54,43,35,29,17,67,43,13,30.16,30.06,7,3,7,0.00
2013-11-7,75,57,47,34,27,21,50,35,15,30.06,29.93,4,0,5,0.00
2013-11-8,74,55,44,33,30,27,58,42,19,29.94,29.82,4,1,7,0.00
2013-11-9,75,55,44,37,32,30,65,46,20,29.92,29.85,4,0,8,0.00
2013-11-10,78,58,45,36,28,17,56,36,10,29.98,29.91,4,1,6,0.00
2013-11-11,78,58,45,32,26,19,45,32,11,30.06,29.93,3,0,6,0.00
2013-11-12,74,58,48,39,31,25,54,38,17,30.12,30.01,5,0,7,0.00
2013-11-13,72,54,43,41,37,30,73,55,32,30.09,29.96,6,2,7,0.00
2013-11-14,74,54,45,43,40,38,78,61,32,30.00,29.68,5,1,7,0.00
2013-11-15,64,49,39,43,38,35,89,68,41,29.68,29.56,6,1,7,0.00
2013-11-16,62,48,41,43,37,34,88,69,42,29.80,29.64,5,1,7,0.00
2013-11-17,63,49,40,42,37,34,85,65,42,29.97,29.80,6,1,7,0.00
2013-11-18,65,51,41,42,37,35,81,62,37,30.01,29.92,3,0,5,0.00
2013-11-19,63,50,43,43,40,36,79,69,47,29.95,29.86,4,0,7,0.00
2013-11-20,61,54,48,51,49,46,97,86,67,29.81,29.69,3,0,4,0.24
2013-11-21,57,49,41,50,46,40,97,92,72,29.83,29.69,4,0,6,0.31
2013-11-22,55,45,40,47,43,39,97,91,73,29.89,29.80,7,1,8,0.01
2013-11-23,58,47,38,44,39,36,95,78,50,30.00,29.87,4,1,10,0.00
2013-11-24,60,47,37,43,39,35,95,76,48,30.14,30.00,3,1,7,0.00
2013-11-25,62,48,38,45,40,36,95,77,49,30.20,30.13,3,0,7,0.01
2013-11-26,67,50,39,46,40,34,96,71,35,30.16,29.96,5,1,5,0.00
2013-11-27,69,53,42,41,35,32,77,54,26,29.96,29.73,5,1,7,0.00
2013-11-28,65,52,44,43,38,36,80,61,37,29.96,29.74,5,1,7,0.00
2013-11-29,67,51,41,41,37,35,82,62,33,30.10,29.95,4,1,7,0.00
2013-11-30,65,50,40,42,38,35,85,67,39,30.14,30.06,6,1,9,0.00
2013-12-1,66,46,40,45,40,36,90,78,44,30.22,30.09,4,0,7,0.00
2013-12-2,71,51,39,45,40,36,91,69,38,30.14,29.80,5,1,8,0.00
2013-12-3,48,42,30,46,39,28,96,90,79,29.79,29.64,3,0,5,1.54
2013-12-4,44,33,27,35,29,26,97,85,61,29.95,29.73,4,1,8,0.01
2013-12-5,45,34,26,33,27,24,94,79,55,30.07,29.94,5,1,8,0.00
2013-12-6,38,30,24,29,25,22,93,82,58,30.08,29.93,4,0,4,0.00
2013-12-7,38,32,24,36,30,21,97,91,81,30.10,29.85,4,0,7,0.19
2013-12-8,41,29,22,30,24,20,93,83,55,30.21,30.09,4,1,8,1.00
2013-12-9,47,32,22,33,24,20,94,76,37,30.33,30.20,3,1,5,0.16
2013-12-10,53,35,23,32,26,21,91,75,37,30.32,30.11,4,1,5,0.02
2013-12-11,62,41,29,36,29,22,91,67,23,30.15,30.07,4,0,5,0.00
2013-12-12,64,44,32,33,27,22,77,55,21,30.14,30.04,5,1,8,0.00
2013-12-13,57,41,32,34,29,24,86,66,32,30.24,30.08,6,1,8,0.00
2013-12-14,64,44,32,38,30,25,87,62,26,30.30,30.21,6,0,6,0.00
2013-12-15,67,47,35,38,30,24,74,55,25,30.26,30.13,5,1,7,0.00
2013-12-16,74,52,38,42,34,28,75,54,25,30.16,30.02,7,2,8,0.00
2013-12-17,76,59,48,42,32,28,58,39,17,30.07,29.89,7,2,8,0.00
2013-12-18,72,56,47,43,38,33,75,52,27,29.89,29.55,5,1,6,0.00
2013-12-19,52,44,36,42,39,34,94,81,66,29.75,29.51,4,0,6,0.00
2013-12-20,51,42,35,41,37,33,95,85,65,29.89,29.74,3,0,7,0.00
2013-12-21,53,40,32,40,33,30,97,79,49,30.00,29.86,4,0,7,0.00
2013-12-22,60,45,34,41,35,31,91,72,44,30.21,30.00,3,0,6,0.00
2013-12-23,67,49,38,40,35,33,85,63,28,30.28,30.20,3,0,5,0.00
2013-12-24,63,47,38,40,36,33,84,68,36,30.20,30.09,3,0,6,0.00
2013-12-25,71,50,37,39,32,26,82,54,22,30.19,30.09,6,1,6,0.00
2013-12-26,70,50,38,35,31,26,72,52,22,30.15,30.06,3,0,8,0.00
2013-12-27,71,52,40,34,28,21,68,42,17,30.13,29.98,6,1,7,0.00
2013-12-28,65,47,37,34,28,20,78,51,25,29.99,29.88,6,1,6,0.00
2013-12-29,65,46,34,35,28,23,84,54,22,30.10,29.97,6,1,9,0.00
2013-12-30,70,51,38,31,22,16,56,34,13,30.14,30.06,7,2,10,0.00
2013-12-31,68,49,39,31,25,17,68,41,18,30.12,30.00,6,1,7,0.00
2014-1-1,68,48,36,34,30,27,70,52,24,30.09,30.01,6,1,7,0.00
2014-1-2,70,50,38,34,30,26,67,48,23,30.06,29.94,5,1,6,0.00